This demonstration page uses our WeatherBlox Daily Observations layout. Learn more.

Left ArrowRight Arrow

39.01783, -85.05884

Hourly Observations for October 13, 2016

Temp ( °F °C ) Dew Point ( °F °C ) Humidity (%) Winds ( mph kmh ) Pressure ( in mb ) Visibility ( mi km ) Precip ( " mm )
12:52 am 00:52 Cloudy 66 18.9 54 12.2 65 65 SW 3 6 30.05 1018 10 16 0.00 0.00
1:52 am 01:52 Cloudy 66 18.9 54 12.2 65 65 W 6 9 30.04 1017 10 16 0.00 0.00
2:52 am 02:52 Cloudy with Light Rain 63 17.2 59 15 87 87 WNW 10 17 30.05 1018 9 14 0.00 0.03
3:12 am 03:12 Cloudy 63 17 61 16 94 94 WNW 10 17 30.09 1019 10 16 0.00 0.03
3:36 am 03:36 Cloudy with Light Rain 61 16 61 16 100 100 NW 17 28 30.09 1019 5 8 0.01 0.25
3:52 am 03:52 Cloudy 60 15.6 58 14.4 93 93 NW 12 19 30.07 1018 8 13 0.01 0.25
4:52 am 04:52 Cloudy 58 14.4 56 13.3 93 93 NW 12 19 30.10 1019 9 14 0.01 0.25
5:52 am 05:52 Cloudy 56 13.3 55 12.8 97 97 NNW 12 19 30.12 1020 10 16 0.02 0.51
6:52 am 06:52 Cloudy 56 13.3 54 12.2 93 93 NW 10 17 30.15 1021 10 16 0.00 0.00
7:52 am 07:52 Cloudy 56 13.3 53 11.7 90 90 NW 12 19 30.17 1022 8 13 0.00 0.00
8:52 am 08:52 Cloudy 55 12.8 52 11.1 90 90 NNW 13 20 30.21 1023 10 16 0.00 0.03
9:52 am 09:52 Cloudy 55 12.8 51 10.6 87 87 N 14 22 30.23 1024 10 16 0.00 0.00
10:52 am 10:52 Cloudy 54 12.2 51 10.6 90 90 NNE 13 20 30.24 1024 9 14 0.00 0.00
11:09 am 11:09 Cloudy 55 13 52 11 88 88 N 9 15 30.27 1025 10 16 0.00 0.03
11:52 am 11:52 Cloudy 56 13.3 51 10.6 84 84 NE 7 11 30.25 1025 10 16 0.00 0.03
12:19 pm 12:19 Mostly Cloudy 57 14 50 10 77 77 N 9 15 30.27 1025 10 16 0.00 0.00
12:52 pm 12:52 Mostly Cloudy 61 16.1 50 10 67 67 N 6 9 30.25 1024 10 16 0.00 0.00
1:52 pm 13:52 Mostly Cloudy 60 15.6 46 7.8 60 60 NNW 8 13 30.25 1024 10 16 0.00 0.00
2:52 pm 14:52 Mostly Cloudy 63 17.2 46 7.8 54 54 N 7 11 30.24 1024 10 16 0.00 0.00
3:52 pm 15:52 Partly Cloudy 64 17.8 44 6.7 48 48 VRB 3 6 30.23 1024 10 16 0.00 0.00
4:52 pm 16:52 Partly Cloudy 64 17.8 44 6.7 48 48 Calm 30.22 1024 10 16 0.00 0.00
5:52 pm 17:52 Partly Cloudy 64 17.8 43 6.1 46 46 NW 6 9 30.23 1024 10 16 0.00 0.00
6:52 pm 18:52 Partly Cloudy 61 16.1 43 6.1 52 52 NNW 6 9 30.24 1024 10 16 0.00 0.00
7:52 pm 19:52 Mostly Clear 56 13.3 43 6.1 62 62 N 6 9 30.25 1024 10 16 0.00 0.00
8:52 pm 20:52 Clear 56 13.3 43 6.1 62 62 N 3 6 30.26 1025 10 16 0.00 0.00
9:52 pm 21:52 Mostly Clear 51 10.6 42 5.6 71 71 Calm 30.27 1025 10 16 0.00 0.00
10:52 pm 22:52 Mostly Clear 52 11.1 42 5.6 69 69 Calm 30.28 1025 10 16 0.00 0.00
11:52 pm 23:52 Mostly Clear 52 11.1 42 5.6 69 69 Calm 30.29 1026 10 16 0.00 0.00

Powered by AerisWeather